Regional Weather Roundup
Issued by NWS

Home | Current Version | Previous Version | Graphics & Text | Print | Product List | Glossary On
Versions: 1 2 3 4 5 6 7 8 9 10 11 12 13 14 15 16 17 18 19 20 21 22 23 24 25 26 27 28 29 30 31 32 33 34 35 36 37 38 39 40 41 42 43 44 45 46 47 48 49 50
000
ASUS45 KBOU 120010
RWRCO

WEATHER ROUNDUP FOR COLORADO
NATIONAL WEATHER SERVICE DENVER/BOULDER CO
600 PM MDT FRI JUL 11 2014

NOTE: "FAIR" INDICATES FEW OR NO CLOUDS BELOW 12000 FEET WITH NO
SIGNIFICANT WEATHER AND/OR OBSTRUCTIONS TO VISIBILITY.

COZ001>005-013-030-031-120100-
...NORTHWEST COLORADO...

CITY           SKY/WX    TMP DP  RH WIND       PRES   REMARKS
CRAIG          MOSUNNY   80  56  43 NE7       30.14F
HAYDEN         MOSUNNY   79  50  36 E12       30.18F
MEEKER         MOSUNNY   85  47  26 VRB5      30.14S
MOUNT WERNER   NOT AVBL
STEAMBOAT SPGS MOSUNNY   74  55  51 E9        30.21F
WALDEN         PTSUNNY   66  52  59 NE5       30.32R
$$

COZ006>008-011-120100-
...WEST CENTRAL VALLEYS...

CITY           SKY/WX    TMP DP  RH WIND       PRES   REMARKS
GRAND JUNCTION PTSUNNY   83  63  50 SW12      30.02R THUNDER
MONTROSE       PTSUNNY   81  53  37 E18       30.11F
EAGLE          PTSUNNY   81  48  32 SW7       30.20R
RIFLE          TSTM      81  61  50 S3        30.08R
DELTA          PTSUNNY   92  46  20 S8        30.04S
NUCLA          PTSUNNY   90  36  14 SW8       30.13F
$$

COZ017>023-064>068-120100-
...SOUTHWEST COLORADO...

CITY           SKY/WX    TMP DP  RH WIND       PRES   REMARKS
DURANGO        MOSUNNY   85  45  24 NW10      30.15F
CORTEZ         SUNNY     90  42  18 W9        30.10F
PAGOSA SPRINGS MOSUNNY   81  39  22 CALM      30.26S
TELLURIDE      PTSUNNY   72  46  40 CALM      30.40S
WOLF CREEK PAS NOT AVBL
$$

COZ009-010-012-014-032>034-037-058>063-120100-
...CENTRAL COLORADO...

CITY           SKY/WX    TMP DP  RH WIND       PRES   REMARKS
ASPEN          PTSUNNY   69  52  54 SE16G25   30.30R
BUENA VISTA    PTSUNNY   69  50  51 CALM      30.34S
COPPER MTN     PTSUNNY   55  43  62 S21       30.66F
BERTHOUD PASS  PTSUNNY   50  34  53 MISG      30.71S
COTTONWOOD PAS PTSUNNY   66  43  42 CALM      30.49S THUNDER
GUNNISON       CLOUDY    61  52  72 N9        30.38F
KREMMLING      PTSUNNY   72  50  46 NE12G21   30.30R
LEADVILLE      PTSUNNY   56  49  77 N5        30.49S
SALIDA         PTSUNNY   77  47  34 NW14G20   30.35R
SUNLIGHT       PTSUNNY   63  50  63 CALM      30.56R
WILKERSON PASS PTSUNNY   54  46  76 CALM      30.64R
$$

COZ069>075-120100-
...SAN LUIS VALLEY/SANGRE DE CRISTO MOUNTAINS...

CITY           SKY/WX    TMP DP  RH WIND       PRES   REMARKS
ALAMOSA        CLOUDY    71  44  37 E9        30.28F
LA VETA PASS   TSTM      48  45  87 W8G16     30.52F
SAGUACHE       PTSUNNY   75  46  35 W17G24    30.33S
$$

COZ035-036-038>040-120100-
...NORTHERN COLORADO FRONT RANGE...

CITY           SKY/WX    TMP DP  RH WIND       PRES   REMARKS
DENVER INTL AP LGT RAIN  67  60  78 W8        30.17S
DMNS CITY PARK   N/A     69  62  80 CALM      30.17S
AURORA         LGT RAIN  65  63  94 CALM      30.21R
FRONT RANGE AP NOT AVBL
ERIE MUNI ARPT LGT RAIN  71  59  64 SW6       30.15F
BOULDER MUN AP LGT RAIN  68  63  83 S3        30.17F
CENTENNIAL     LGT RAIN  67  60  78 SE5       30.22R
BROOMFIELD     PTSUNNY   66  63  88 N7        30.20S
FORT COLLINS   CLOUDY    81  55  41 S18       30.13R THUNDER
LONGMONT       DRIZZLE   73  59  59 S12G17    30.17R
$$

COZ041-046-047-076>085-087-088-120100-
...PIKES PEAK/PALMER DIVIDE AND SOUTHERN FOOTHILLS...

CITY           SKY/WX    TMP DP  RH WIND       PRES   REMARKS
COLO. SPRINGS  CLOUDY    69  57  65 N15       30.21F
A. F. ACADEMY  CLOUDY    73  51  45 NE8       30.25R
ELLICOTT         N/A    N/A N/A N/A MISG        N/A
FALCON         CLOUDY    64  56  78 N12       30.28F
FORT CARSON    CLOUDY    70  59  68 NW14      30.17R
LIMON          CLOUDY    84  58  40 N8        30.09S
MONUMENT HILL  CLOUDY    64  50  59 E6        30.29F
TRINIDAD       PTSUNNY   91  46  21 SW17G26   30.07R
$$

COZ042>045-048>051-090-091-120100-
...NORTHEAST COLORADO...

CITY           SKY/WX    TMP DP  RH WIND       PRES   REMARKS
GREELEY ARPT   NOT AVBL
AKRON          SUNNY     88  60  38 S10       30.05R
BURLINGTON     SUNNY     91  52  26 S20G25    29.97S
WRAY             N/A     92  66  41 N22       29.95R
STERLING       TSTM      68  64  88 N28G41    30.10R
HOLYOKE        SUNNY     88  64  45 E13G20    29.99R
FORT MORGAN    PTSUNNY   72  60  66 N24G36    30.07R
$$

COZ086-089-092>099-120100-
...SOUTHEAST COLORADO...

CITY           SKY/WX    TMP DP  RH WIND       PRES   REMARKS
PUEBLO         TSTM      70  63  78 N31G41    30.01S
LA JUNTA       SUNNY    100  41  13 SE6       29.94R
LAMAR          SUNNY     98  46  17 S25G36    29.92R
SPRINGFIELD      N/A     91  46  21 S24G32    30.03R
$$



USA.gov is the U.S. government's official web portal to all federal, state and local government web resources and services.